Tracking 29892 objects as of 21-Nov-2024
HD Live streaming from Space Station
objects crossing your sky now

CZ-6A DEB

Track CZ-6A DEB now!
10-day predictions


NORAD ID: 56605
Int'l Code: 2022-151AED
Perigee: 798.3 km
Apogee: 803.8 km
Inclination: 98.8 °
Period: 100.7 minutes
Semi major axis: 7172 km
RCS: Unknown
Launch date: November 11, 2022
Source: People's Republic of China (PRC)
Launch site: Taiyaun Space Center, China (TSC)

Note: This is SATELLITE DEBRIS
Your satellite tracking list
Your tracking list is empty




NASA's NSSDC Master Catalog

Two Line Element Set (TLE):
1 56605U 22151AED 24322.51764566  .00007390  00000-0  29165-2 0  9990
2 56605  98.8077 338.1826 0003795  80.6248 279.5362 14.29346378 92525
Source of the keplerian elements: AFSPC